This demonstration page uses our WeatherBlox Daily Observations layout. Learn more.

Left ArrowRight Arrow

Hourly Observations for April 1, 2018

Temp ( °F °C ) Dew Point ( °F °C ) Humidity (%) Winds ( mph kmh ) Pressure ( in mb ) Visibility ( mi km ) Precip ( " mm )
12:48 am 00:48 Cloudy 50 10 46 8 88 88 SW 8 13 30.09 1019 10 16 0.00 0.00
12:53 am 00:53 Cloudy 50 10 47 8.3 89 89 SW 8 13 30.08 1019 10 16 0.00 0.00
1:11 am 01:11 Cloudy 50 10 47 8.3 89 89 WSW 7 11 30.09 1019 10 16 0.00 0.00
1:44 am 01:44 Cloudy 50 10 48 8.9 93 93 WSW 6 9 30.09 1019 10 16 0.00 0.00
1:53 am 01:53 Cloudy 50 10 48 8.9 93 93 WSW 6 9 30.08 1019 10 16 0.00 0.00
2:36 am 02:36 Cloudy 49 9.4 48 8.9 97 97 WSW 6 9 30.09 1019 10 16 0.00 0.03
2:53 am 02:53 Cloudy with Light Rain 49 9.4 49 9.4 100 100 W 3 6 30.09 1019 4 6 0.00 0.03
3:14 am 03:14 Cloudy with Light Rain 50 10 49 9.4 96 96 WNW 9 15 30.09 1019 6 10 0.00 0.03
3:18 am 03:18 Cloudy with Light Rain 50 10 48 8.9 93 93 WNW 6 9 30.09 1019 7 11 0.00 0.03
3:21 am 03:21 Cloudy with Light Rain 50 10 48 8.9 93 93 WNW 13 20 30.09 1019 9 14 0.00 0.03
3:23 am 03:23 Cloudy with Light Rain 49 9.4 48 8.9 97 97 NNW 20 31 30.09 1019 10 16 0.00 0.03
3:30 am 03:30 Cloudy 45 7.2 43 6.1 93 93 NNW 16 26 30.09 1019 10 16 0.00 0.03
3:35 am 03:35 Cloudy 44 6.7 40 4.4 85 85 NNW 14 22 30.09 1019 10 16 0.00 0.03
3:53 am 03:53 Cloudy 44 6.7 38 3.3 79 79 NNW 8 13 30.11 1020 10 16 0.00 0.03
4:53 am 04:53 Cloudy 41 5 35 1.7 79 79 N 7 11 30.13 1020 10 16 0.00 0.00
5:18 am 05:18 Cloudy 41 5 34 1.1 76 76 N 8 13 30.15 1021 10 16 0.00 0.00
5:53 am 05:53 Cloudy 39 3.9 31 -0.6 73 73 N 13 20 30.16 1021 10 16 0.00 0.00
6:53 am 06:53 Mostly Cloudy 37 2.8 29 -1.7 73 73 N 8 13 30.19 1022 10 16 0.00 0.00
7:53 am 07:53 Sunny 37 2.8 28 -2.2 70 70 N 5 7 30.22 1023 10 16 0.00 0.00
8:53 am 08:53 Sunny 38 3.3 29 -1.7 70 70 N 9 15 30.23 1024 10 16 0.00 0.00
9:53 am 09:53 Sunny 39 3.9 29 -1.7 67 67 N 10 17 30.24 1024 10 16 0.00 0.00
10:53 am 10:53 Partly Cloudy 40 4.4 29 -1.7 65 65 NNW 9 15 30.23 1024 10 16 0.00 0.00
11:53 am 11:53 Mostly Sunny 43 6.1 31 -0.6 63 63 N 5 7 30.24 1024 10 16 0.00 0.00
12:53 pm 12:53 Partly Cloudy 45 7.2 32 0 61 61 undefined N/A 30.22 1023 10 16 0.00 0.00
1:53 pm 13:53 Sunny 46 7.8 31 -0.6 56 56 VRB 6 9 30.21 1023 10 16 0.00 0.00
2:53 pm 14:53 Mostly Sunny 47 8.3 31 -0.6 54 54 VRB 6 9 30.18 1022 10 16 0.00 0.00
3:53 pm 15:53 Partly Cloudy 47 8.3 30 -1.1 52 52 WNW 3 6 30.17 1022 10 16 0.00 0.00
4:53 pm 16:53 Mostly Sunny 48 8.9 31 -0.6 52 52 N 8 13 30.15 1021 10 16 0.00 0.00
5:53 pm 17:53 Partly Cloudy 49 9.4 30 -1.1 48 48 N 8 13 30.12 1020 10 16 0.00 0.00
6:53 pm 18:53 Sunny 46 7.8 29 -1.7 51 51 NE 8 13 30.10 1019 10 16 0.00 0.00
7:53 pm 19:53 Mostly Cloudy 45 7.2 29 -1.7 54 54 NE 8 13 30.10 1019 10 16 0.00 0.00
8:53 pm 20:53 Cloudy 43 6.1 28 -2.2 56 56 N 8 13 30.11 1020 10 16 0.00 0.00
9:38 pm 21:38 Cloudy with Light Rain 41 5 29 -1.7 62 62 ENE 8 13 30.12 1020 8 13 0.00 0.03
9:53 pm 21:53 Cloudy with Light Rain 40 4.4 30 -1.1 68 68 VRB 3 6 30.15 1021 10 16 0.01 0.25
10:37 pm 22:37 Cloudy with Light Snow 35 1.7 33 0.6 93 93 NNW 5 7 30.15 1021 3 5 0.03 0.76
10:44 pm 22:44 Cloudy with Light Snow 34 1.1 33 0.6 97 97 NE 5 7 30.15 1021 2 3 0.04 1.02
10:46 pm 22:46 Cloudy with Light Snow 34 1.1 33 0.6 97 97 ENE 5 7 30.12 1020 2 2 0.04 1.02
10:53 pm 22:53 Cloudy with Light Snow 33 0.6 33 0.6 100 100 N 3 6 30.12 1020 1 1 0.04 1.02
11:04 pm 23:04 Cloudy with Light Snow 33 0.6 33 0.6 100 100 ENE 3 6 30.12 1020 1 1 0.00 0.03
11:20 pm 23:20 Cloudy with Light Snow 33 0.6 33 0.6 100 100 Calm 30.15 1021 1 2 0.00 0.03
11:25 pm 23:25 Cloudy with Light Snow 33 0.6 33 0.6 100 100 Calm 30.15 1021 2 3 0.00 0.03
11:32 pm 23:32 Cloudy with Light Snow 33 0.6 33 0.6 100 100 NNW 5 7 30.15 1021 3 4 0.00 0.03
11:35 pm 23:35 Cloudy with Light Snow 33 0.6 33 0.6 100 100 NNW 6 9 30.15 1021 3 5 0.00 0.03
11:46 pm 23:46 Cloudy with Light Snow 33 0.6 33 0.6 100 100 NW 5 7 30.15 1021 2 3 0.00 0.03
11:53 pm 23:53 Cloudy with Light Snow 33 0.6 33 0.6 100 100 NW 5 7 30.14 1021 2 2 0.00 0.03

Powered by AerisWeather